EW5637 Weather Reports


Display with metric or nautical units.
time (UTC)temp
F
wind
direction
speed
MPH
gust
MPH
rain 1hr
in
rain 24hr
in
rain mn
in
humidity
%
barometer
mb
20260902034042 76 10 8.0 21.0 0.00 0.00 0.00 80 1018.4
20260902033546 76 340 10.0 21.0 0.00 0.00 0.00 80 1018.4
20260902033101 76 360 13.0 21.0 0.00 0.00 0.00 80 1018.3
20260902032542 76 30 9.0 18.0 0.00 0.00 0.00 80 1018.4
20260902032042 76 21 6.0 11.0 0.00 0.00 0.00 80 1018.1
20260902031558 77 331 5.0 11.0 0.00 0.00 0.00 79 1017.8
20260902031042 77 336 4.0 14.0 0.00 0.00 0.00 79 1017.7
20260902030545 77 13 7.0 14.0 0.00 0.00 0.00 78 1017.5
20260902030053 78 34 9.0 14.0 0.00 0.00 0.00 78 1017.4
20260902025542 78 31 6.0 18.0 0.00 0.00 0.00 79 1017.2
20260902025042 77 338 10.0 19.0 0.00 0.00 0.00 81 1017.2
20260902024550 76 48 12.0 19.0 0.00 0.00 0.00 85 1017.0
20260902024041 76 259 1.0 3.0 0.00 0.00 0.00 85 1016.4
20260902023542 77 259 1.0 3.0 0.00 0.00 0.00 84 1016.2
20260902023057 78 0 0.0 0.0 0.00 0.00 0.00 83 1016.0
20260902022542 78 0 0.0 1.0 0.00 0.00 0.00 81 1015.8
20260902022042 79 0 0.0 4.0 0.00 0.00 0.00 81 1015.7
20260902021745 79 0 0.0 4.0 0.00 0.00 0.00 80 1015.7
20260902021042 79 257 1.0 4.0 0.00 0.00 0.00 80 1015.7
20260902020545 79 0 0.0 6.0 0.00 0.00 0.00 81 1015.8
20260902020050 79 0 0.0 6.0 0.00 0.00 0.00 80 1015.8
20260902015541 79 270 0.0 3.0 0.00 0.00 0.00 81 1015.9
20260902015041 79 0 0.0 3.0 0.00 0.00 0.00 81 1015.8
20260902014552 80 0 0.0 3.0 0.00 0.00 0.00 81 1015.7
20260902014042 80 0 0.0 3.0 0.00 0.00 0.00 81 1015.6
20260902013542 80 0 0.0 3.0 0.00 0.00 0.00 81 1015.6
20260902013137 80 0 1.0 3.0 0.00 0.00 0.00 81 1015.7
20260902012543 80 0 0.0 4.0 0.00 0.00 0.00 81 1015.9
20260902012042 80 0 1.0 4.0 0.00 0.00 0.00 81 1015.8
20260902011555 79 294 2.0 4.0 0.00 0.00 0.00 81 1015.9
20260902011042 79 295 1.0 4.0 0.00 0.00 0.00 81 1015.9
20260902010541 79 296 2.0 4.0 0.00 0.00 0.00 81 1015.9
20260902010059 80 296 3.0 5.0 0.00 0.00 0.00 80 1015.8
20260902005541 81 294 2.0 5.0 0.00 0.00 0.00 78 1015.7
20260902005041 82 292 1.0 7.0 0.00 0.00 0.00 75 1015.4
20260902004602 83 265 1.0 7.0 0.00 0.00 0.00 74 1015.1
20260902004042 83 261 3.0 7.0 0.00 0.00 0.00 74 1015.0
20260902003542 82 276 3.0 7.0 0.00 0.00 0.00 74 1014.9
20260902003100 82 267 2.0 6.0 0.00 0.00 0.00 76 1014.6
20260902002542 81 266 2.0 6.0 0.00 0.00 0.00 77 1014.6
20260902002041 81 0 3.0 6.0 0.00 0.00 0.00 77 1014.5
20260902001602 81 265 2.0 7.0 0.00 0.00 0.00 78 1014.6
20260902001041 81 262 2.0 7.0 0.00 0.00 0.00 79 1014.5
20260902000542 81 281 2.0 6.0 0.00 0.00 0.00 78 1014.5
20260902000101 82 275 1.0 4.0 0.00 0.00 0.00 77 1014.5
20260901235542 82 273 1.0 4.0 0.00 0.00 0.00 77 1014.4
20260901235042 82 269 2.0 5.0 0.00 0.00 0.00 76 1014.2
20260901234556 83 258 2.0 5.0 0.00 0.00 0.00 76 1014.2
20260901234042 83 288 2.0 7.0 0.00 0.00 0.00 75 1014.1
20260901233542 84 288 3.0 7.0 0.00 0.00 0.00 75 1014.1
20260901233100 84 281 3.0 7.0 0.00 0.00 0.00 74 1014.1
20260901232542 85 279 4.0 7.0 0.00 0.00 0.00 73 1014.3
20260901232044 86 280 2.0 6.0 0.00 0.00 0.00 71 1014.1
20260901231558 86 275 2.0 8.0 0.00 0.00 0.00 70 1014.0
20260901231041 86 266 3.0 8.0 0.00 0.00 0.00 70 1014.0
20260901230541 87 265 2.0 6.0 0.00 0.00 0.00 70 1014.1
20260901230055 87 253 2.0 4.0 0.00 0.00 0.00 70 1014.1
20260901225544 87 278 1.0 4.0 0.00 0.00 0.00 68 1014.1
20260901225041 88 0 0.0 7.0 0.00 0.00 0.00 69 1014.0
20260901224559 88 268 2.0 7.0 0.00 0.00 0.00 69 1014.1
20260901224041 89 257 2.0 7.0 0.00 0.00 0.00 67 1014.1
20260901223542 89 263 2.0 7.0 0.00 0.00 0.00 67 1014.2
20260901223054 89 258 2.0 7.0 0.00 0.00 0.00 67 1014.1
20260901222542 90 267 1.0 7.0 0.00 0.00 0.00 67 1014.1
20260901222042 90 255 1.0 6.0 0.00 0.00 0.00 67 1014.1
20260901221554 90 266 2.0 5.0 0.00 0.00 0.00 65 1014.0
20260901221041 90 241 1.0 7.0 0.00 0.00 0.00 66 1014.0
20260901220542 90 256 2.0 7.0 0.00 0.00 0.00 65 1014.2
20260901220054 90 251 3.0 6.0 0.00 0.00 0.00 65 1014.2
20260901215541 90 241 0.0 7.0 0.00 0.00 0.00 64 1014.2
20260901215042 90 269 2.0 7.0 0.00 0.00 0.00 65 1014.3
20260901214557 91 231 0.0 7.0 0.00 0.00 0.00 66 1014.2
20260901214042 91 228 1.0 8.0 0.00 0.00 0.00 65 1014.3
20260901213544 91 232 2.0 8.0 0.00 0.00 0.00 64 1014.2
20260901213102 92 232 3.0 7.0 0.00 0.00 0.00 62 1014.2
20260901212541 92 223 3.0 8.0 0.00 0.00 0.00 63 1014.2
20260901212042 92 260 3.0 10.0 0.00 0.00 0.00 61 1014.3
20260901211553 92 269 3.0 10.0 0.00 0.00 0.00 63 1014.3
20260901211042 92 204 2.0 9.0 0.00 0.00 0.00 61 1014.2
20260901210543 92 199 2.0 9.0 0.00 0.00 0.00 61 1014.2
20260901210051 92 219 2.0 9.0 0.00 0.00 0.00 61 1014.3
20260901205541 92 212 3.0 12.0 0.00 0.00 0.00 61 1014.3
20260901205041 92 244 5.0 12.0 0.00 0.00 0.00 61 1014.3
20260901204554 92 223 3.0 13.0 0.00 0.00 0.00 61 1014.5
20260901204043 92 215 4.0 13.0 0.00 0.00 0.00 59 1014.5
20260901203542 92 206 3.0 10.0 0.00 0.00 0.00 60 1014.4
20260901203103 92 231 4.0 11.0 0.00 0.00 0.00 59 1014.5
20260901202545 92 221 4.0 11.0 0.00 0.00 0.00 59 1014.6
20260901202043 92 202 4.0 11.0 0.00 0.00 0.00 59 1014.6
20260901201555 92 235 4.0 10.0 0.00 0.00 0.00 60 1014.6
20260901201042 92 215 4.0 9.0 0.00 0.00 0.00 61 1014.6
20260901200542 92 250 3.0 9.0 0.00 0.00 0.00 64 1014.6
20260901200106 91 275 3.0 9.0 0.00 0.00 0.00 62 1014.6
20260901195541 92 248 2.0 10.0 0.00 0.00 0.00 64 1014.6
20260901195042 92 288 4.0 12.0 0.00 0.00 0.00 60 1014.6
20260901194601 92 238 6.0 15.0 0.00 0.00 0.00 63 1014.7
20260901194042 92 280 6.0 15.0 0.00 0.00 0.00 62 1014.6
20260901193543 92 282 4.0 12.0 0.00 0.00 0.00 63 1014.8
20260901193110 92 211 4.0 14.0 0.00 0.00 0.00 63 1015.0
20260901192556 92 258 4.0 14.0 0.00 0.00 0.00 63 1015.0
20260901192041 92 234 3.0 16.0 0.00 0.00 0.00 63 1015.0
20260901191553 91 309 7.0 16.0 0.00 0.00 0.00 63 1015.0
20260901191041 91 238 6.0 13.0 0.00 0.00 0.00 64 1015.1
20260901190541 91 257 7.0 13.0 0.00 0.00 0.00 63 1015.2
20260901190104 91 309 3.0 13.0 0.00 0.00 0.00 66 1015.3
20260901185542 91 286 5.0 13.0 0.00 0.00 0.00 65 1015.3
20260901185041 91 244 5.0 13.0 0.00 0.00 0.00 65 1015.4
20260901184600 90 174 5.0 15.0 0.00 0.00 0.00 66 1015.4
20260901184041 90 222 6.0 18.0 0.00 0.00 0.00 65 1015.4
20260901183543 90 256 7.0 18.0 0.00 0.00 0.00 65 1015.4
20260901183056 90 216 6.0 15.0 0.00 0.00 0.00 65 1015.5
20260901182543 90 294 6.0 14.0 0.00 0.00 0.00 69 1015.6
20260901182042 90 229 2.0 16.0 0.00 0.00 0.00 70 1015.6
20260901181601 89 244 5.0 16.0 0.00 0.00 0.00 69 1015.6
20260901181041 89 234 5.0 17.0 0.00 0.00 0.00 69 1015.8
20260901180542 89 220 10.0 17.0 0.00 0.00 0.00 70 1016.0
20260901180105 89 197 6.0 14.0 0.00 0.00 0.00 72 1015.8
20260901175545 88 221 4.0 14.0 0.00 0.00 0.00 70 1016.0
20260901175044 89 288 5.0 11.0 0.00 0.00 0.00 69 1016.0
20260901174603 89 238 5.0 11.0 0.00 0.00 0.00 70 1015.9
20260901174042 88 230 5.0 12.0 0.00 0.00 0.00 69 1015.8
20260901173543 88 179 4.0 12.0 0.00 0.00 0.00 70 1015.8
20260901173102 88 294 6.0 12.0 0.00 0.00 0.00 69 1015.8
20260901172542 88 234 6.0 12.0 0.00 0.00 0.00 70 1015.8
20260901172045 88 254 4.0 14.0 0.00 0.00 0.00 70 1015.9
20260901171603 88 198 4.0 14.0 0.00 0.00 0.00 72 1015.9
20260901171042 87 61 1.0 17.0 0.00 0.00 0.00 73 1015.8
20260901170543 86 181 6.0 17.0 0.00 0.00 0.00 73 1015.8
20260901170106 86 236 4.0 9.0 0.00 0.00 0.00 73 1015.8
20260901165542 85 169 1.0 9.0 0.00 0.00 0.00 78 1016.0
20260901165040 85 120 2.0 10.0 0.00 0.00 0.00 80 1016.0
20260901164602 85 158 4.0 10.0 0.00 0.00 0.00 77 1016.0
20260901164042 85 127 5.0 9.0 0.00 0.00 0.00 76 1016.1
20260901163542 85 191 3.0 10.0 0.00 0.00 0.00 78 1016.3
20260901163100 84 129 4.0 10.0 0.00 0.00 0.00 77 1016.4
20260901162544 83 128 5.0 10.0 0.00 0.00 0.00 80 1016.3
20260901162044 83 114 4.0 10.0 0.00 0.00 0.00 80 1016.4
20260901161557 82 183 4.0 12.0 0.00 0.00 0.00 80 1016.3
20260901161042 82 144 6.0 12.0 0.00 0.00 0.00 79 1016.2
20260901160541 81 169 4.0 8.0 0.00 0.00 0.00 83 1016.4
20260901160056 81 95 2.0 7.0 0.00 0.00 0.00 81 1016.6
20260901155541 80 167 1.0 6.0 0.00 0.00 0.00 81 1016.7
20260901155045 80 153 2.0 6.0 0.00 0.00 0.00 81 1016.8
20260901154551 80 153 0.0 7.0 0.00 0.00 0.00 82 1016.7
20260901154042 80 144 1.0 7.0 0.00 0.00 0.00 82 1016.8
20260901153542 80 137 3.0 7.0 0.00 0.00 0.00 81 1016.8
20260901153102 80 138 2.0 5.0 0.00 0.00 0.00 81 1016.8
20260901152541 80 0 0.0 4.0 0.00 0.00 0.00 82 1016.8
20260901152041 80 167 1.0 4.0 0.00 0.00 0.00 80 1016.8
20260901151554 81 174 1.0 4.0 0.00 0.00 0.00 79 1016.7
20260901151042 81 171 2.0 5.0 0.00 0.00 0.00 80 1016.7
20260901150541 81 177 1.0 5.0 0.00 0.00 0.00 79 1016.8
20260901150055 81 202 1.0 4.0 0.00 0.00 0.00 78 1017.0
20260901145545 82 207 1.0 4.0 0.00 0.00 0.00 77 1017.0
20260901145041 82 255 0.0 7.0 0.00 0.00 0.00 76 1017.1
20260901144555 82 0 0.0 7.0 0.00 0.00 0.00 77 1017.0
20260901144043 82 261 1.0 5.0 0.00 0.00 0.00 77 1016.8
20260901143542 82 252 1.0 8.0 0.00 0.00 0.00 78 1016.9
20260901143109 82 321 3.0 10.0 0.00 0.00 0.00 77 1016.9
20260901142541 82 315 5.0 10.0 0.00 0.00 0.00 77 1017.0
20260901142041 82 270 1.0 8.0 0.00 0.00 0.00 79 1016.9
20260901141552 82 255 3.0 8.0 0.00 0.00 0.00 78 1017.0
20260901141042 81 267 3.0 8.0 0.00 0.00 0.00 79 1016.8
20260901140541 80 227 2.0 8.0 0.00 0.00 0.00 80 1016.8
20260901140110 80 266 1.0 7.0 0.00 0.00 0.00 80 1016.8
20260901135541 80 268 1.0 7.0 0.00 0.00 0.00 81 1016.8
20260901135041 79 264 3.0 8.0 0.00 0.00 0.00 81 1016.9
20260901134552 78 289 2.0 8.0 0.00 0.00 0.00 83 1017.0
20260901134043 78 161 2.0 5.0 0.00 0.00 0.00 84 1017.0
20260901133542 77 129 1.0 3.0 0.00 0.00 0.00 87 1017.0
20260901133054 77 0 1.0 4.0 0.00 0.00 0.00 88 1017.0
20260901132543 77 105 1.0 6.0 0.00 0.00 0.00 88 1017.1
20260901132042 76 0 2.0 6.0 0.00 0.00 0.00 89 1017.1
20260901131553 76 105 3.0 6.0 0.00 0.00 0.00 90 1017.3
20260901131042 76 108 3.0 6.0 0.00 0.00 0.00 91 1017.4
20260901130543 75 108 2.0 4.0 0.00 0.00 0.00 94 1017.4
20260901130053 75 109 2.0 4.0 0.00 0.00 0.00 95 1017.5
20260901125542 74 113 2.0 3.0 0.00 0.00 0.00 96 1017.4
20260901125042 74 118 1.0 2.0 0.00 0.00 0.00 96 1017.5
20260901124558 73 0 0.0 0.0 0.00 0.00 0.00 97 1017.5
20260901124044 72 0 0.0 0.0 0.00 0.00 0.00 96 1017.5
20260901123543 72 0 0.0 0.0 0.00 0.00 0.00 96 1017.7
20260901123117 72 0 0.0 0.0 0.00 0.00 0.00 96 1017.5
20260901122543 71 0 0.0 0.0 0.00 0.00 0.00 96 1017.5
20260901122041 71 0 0.0 0.0 0.00 0.00 0.00 96 1017.4
20260901121606 71 0 0.0 0.0 0.00 0.00 0.00 96 1017.4
20260901121047 71 0 0.0 0.0 0.00 0.00 0.00 96 1017.5
20260901120542 70 0 0.0 0.0 0.00 0.00 0.00 96 1017.5
20260901115540 70 0 0.0 0.0 0.00 0.00 0.00 96 1017.5
20260901115041 70 0 0.0 0.0 0.00 0.00 0.00 96 1017.5
20260901114554 70 0 0.0 0.0 0.00 0.00 0.00 96 1017.5
20260901114041 70 0 0.0 0.0 0.00 0.00 0.00 96 1017.6
20260901113542 70 0 0.0 0.0 0.00 0.00 0.00 96 1017.6
20260901113105 70 0 0.0 0.0 0.00 0.00 0.00 96 1017.4
20260901112541 70 0 0.0 0.0 0.00 0.00 0.00 96 1017.3
20260901112043 70 0 0.0 0.0 0.00 0.00 0.00 96 1017.2
20260901111556 69 0 0.0 0.0 0.00 0.00 0.00 96 1017.2
20260901111045 69 0 0.0 0.0 0.00 0.00 0.00 96 1017.2
20260901110541 69 0 0.0 0.0 0.00 0.00 0.00 96 1017.2
20260901110103 69 0 0.0 0.0 0.00 0.00 0.00 96 1017.1
20260901105542 69 0 0.0 0.0 0.00 0.00 0.00 96 1017.2
20260901105042 69 0 0.0 0.0 0.00 0.00 0.00 95 1017.1
20260901104559 69 0 0.0 2.0 0.00 0.00 0.00 96 1017.1
20260901104042 69 0 0.0 2.0 0.00 0.00 0.00 96 1017.2
20260901103544 69 0 0.0 2.0 0.00 0.00 0.00 96 1017.2
20260901103111 69 118 0.0 2.0 0.00 0.00 0.00 96 1017.1
20260901102542 69 0 0.0 2.0 0.00 0.00 0.00 96 1017.0
20260901102043 69 0 0.0 2.0 0.00 0.00 0.00 96 1017.1
20260901101605 69 0 1.0 4.0 0.00 0.00 0.00 96 1017.1
20260901101042 69 0 2.0 4.0 0.00 0.00 0.00 96 1017.0
20260901100544 69 69 1.0 3.0 0.00 0.00 0.00 96 1017.1
20260901100105 69 0 0.0 3.0 0.00 0.00 0.00 96 1017.1
20260901095545 69 323 2.0 3.0 0.00 0.00 0.00 96 1017.0
20260901095042 69 0 1.0 3.0 0.00 0.00 0.00 96 1017.0
20260901094558 69 0 0.0 2.0 0.00 0.00 0.00 95 1017.0
20260901094041 69 0 0.0 0.0 0.00 0.00 0.00 96 1017.1
20260901093543 69 0 0.0 1.0 0.00 0.00 0.00 96 1017.2
20260901093106 69 0 0.0 1.0 0.00 0.00 0.00 96 1017.2
20260901092542 69 0 0.0 0.0 0.00 0.00 0.00 96 1017.2
20260901092042 69 0 0.0 0.0 0.00 0.00 0.00 96 1017.3
20260901091602 69 0 0.0 0.0 0.00 0.00 0.00 96 1017.2
20260901091041 69 0 0.0 0.0 0.00 0.00 0.00 96 1017.2
20260901090541 69 0 0.0 2.0 0.00 0.00 0.00 96 1017.3
20260901090051 69 0 0.0 2.0 0.00 0.00 0.00 96 1017.2
20260901085541 69 0 0.0 4.0 0.00 0.00 0.00 96 1017.3
20260901085041 69 322 0.0 4.0 0.00 0.00 0.00 96 1017.3
20260901084554 69 65 1.0 3.0 0.00 0.00 0.00 96 1017.3
20260901084042 69 0 0.0 3.0 0.00 0.00 0.00 96 1017.2
20260901083541 68 65 1.0 3.0 0.00 0.00 0.00 96 1017.1
20260901083101 68 281 1.0 3.0 0.00 0.00 0.00 96 1017.2
20260901082541 68 0 0.0 0.0 0.00 0.00 0.00 96 1017.3
20260901082046 68 0 0.0 2.0 0.00 0.00 0.00 96 1017.3
20260901081553 68 0 0.0 2.0 0.00 0.00 0.00 96 1017.4
20260901081040 68 0 0.0 2.0 0.00 0.00 0.00 95 1017.4
20260901080541 68 0 0.0 0.0 0.00 0.00 0.00 96 1017.5
20260901080057 68 0 0.0 2.0 0.00 0.00 0.00 96 1017.4
20260901075542 68 0 0.0 2.0 0.00 0.00 0.00 96 1017.5
20260901075038 68 281 0.0 2.0 0.00 0.00 0.00 96 1017.5
20260901074604 68 281 0.0 2.0 0.00 0.00 0.00 96 1017.6
20260901074042 68 0 0.0 0.0 0.00 0.00 0.00 96 1017.4
20260901073542 68 0 0.0 0.0 0.00 0.00 0.00 96 1017.4
20260901073054 68 0 0.0 0.0 0.00 0.00 0.00 95 1017.4
20260901072542 68 0 0.0 0.0 0.00 0.00 0.00 95 1017.4
20260901072045 68 0 0.0 2.0 0.00 0.00 0.00 95 1017.4
20260901071605 68 0 0.0 2.0 0.00 0.00 0.00 95 1017.4
20260901071041 68 281 0.0 2.0 0.00 0.00 0.00 95 1017.3
20260901070543 68 0 0.0 0.0 0.00 0.00 0.00 96 1017.3
20260901070112 68 0 0.0 0.0 0.00 0.00 0.00 95 1017.3
20260901065541 68 0 0.0 0.0 0.00 0.00 0.00 95 1017.4
20260901065041 68 0 0.0 0.0 0.00 0.00 0.00 95 1017.5
20260901064600 68 0 0.0 0.0 0.00 0.00 0.00 95 1017.7
20260901064045 68 0 0.0 0.0 0.00 0.00 0.00 95 1017.7
20260901063538 68 0 0.0 0.0 0.00 0.00 0.00 95 1017.8
20260901063056 68 0 0.0 0.0 0.00 0.00 0.00 95 1017.8
20260901062542 68 0 0.0 0.0 0.00 0.00 0.00 95 1017.8
20260901062042 68 0 0.0 0.0 0.00 0.00 0.00 95 1017.9
20260901061610 69 0 0.0 0.0 0.00 0.00 0.00 95 1017.9
20260901061039 69 0 0.0 0.0 0.00 0.00 0.00 95 1018.0
20260901060541 69 0 0.0 0.0 0.00 0.00 0.00 95 1018.0
20260901060107 68 0 0.0 0.0 0.00 0.00 0.00 95 1018.0
20260901055541 68 0 0.0 3.0 0.00 0.04 0.00 95 1018.1
20260901055041 68 0 0.0 4.0 0.00 0.04 0.00 94 1018.3
20260901054609 69 281 2.0 4.0 0.00 0.04 0.00 94 1018.4
20260901054042 69 281 0.0 3.0 0.00 0.04 0.00 95 1018.4
20260901053544 69 0 0.0 0.0 0.00 0.04 0.00 95 1018.4
20260901053106 69 0 0.0 0.0 0.00 0.04 0.00 95 1018.4
20260901052541 69 0 0.0 0.0 0.00 0.04 0.00 95 1018.4
20260901052043 69 0 0.0 0.0 0.00 0.04 0.00 95 1018.4
20260901051552 69 0 0.0 0.0 0.00 0.04 0.00 95 1018.4
20260901051044 69 0 0.0 0.0 0.00 0.04 0.00 94 1018.3
20260901050541 70 0 0.0 0.0 0.00 0.04 0.00 95 1018.3
20260901050105 70 0 0.0 0.0 0.00 0.04 0.00 95 1018.4
20260901045543 70 0 0.0 0.0 0.00 0.04 0.00 95 1018.3
20260901045041 70 0 0.0 0.0 0.00 0.04 0.00 95 1018.3
20260901044621 70 0 0.0 0.0 0.00 0.04 0.00 95 1018.2
20260901044045 70 0 0.0 0.0 0.00 0.04 0.00 95 1018.3
20260901043543 70 0 0.0 0.0 0.00 0.04 0.00 95 1018.3
20260901043056 70 0 0.0 0.0 0.00 0.04 0.00 95 1018.3
20260901042541 70 0 0.0 0.0 0.00 0.04 0.00 95 1018.3
20260901042041 70 0 0.0 0.0 0.00 0.04 0.00 95 1018.3
20260901041551 70 0 0.0 0.0 0.00 0.04 0.00 95 1018.4
20260901041045 70 0 0.0 0.0 0.00 0.04 0.00 95 1018.4
20260901040541 70 0 0.0 0.0 0.00 0.04 0.00 95 1018.5
20260901040106 70 0 0.0 0.0 0.00 0.04 0.00 94 1018.5
20260901035544 70 0 0.0 0.0 0.00 0.04 0.04 95 1018.5
20260901035044 70 0 0.0 0.0 0.00 0.04 0.04 95 1018.6
20260901034558 71 0 0.0 0.0 0.00 0.04 0.04 94 1018.6